www.pogodaiklimat.ru

Погода и климат >> Архив погоды >> Таиланд >> Буа Чум


ПОГОДА в Буа Чум

  • Прогноз погоды в Буа Чум
  • Монитор погоды в Буа Чум

АРХИВ ПОГОДЫ в Буа Чум

Время (UTC), дата Ветер
(напр.,м/с)
 
Видим.   Явления Облачность Т
(С)
Тd
(С)
f
(%)
Тe
(С)
Тes
(С)
Комфортность P
(гПа)
Po
(гПа)
Тmin
(С)
Tmax
(С)
R
(мм)
R24
(мм)
S
(см)
21 16.05 штиль 0 6000 м дымка 4/0
[Ci fib]
+26.8 +24.0 85 +37 +37 очень
душно
1007.1 1001.2
00 17.05 ЮЗ 3 4000 м дымка 8/3 600 м
[Cu Sc Ac trans Cs]
+27.7 +26.0 90 +41 +42 опасность
перегрева
1008.0 1002.1 +26.0
03 17.05 Ю 5 8000 м мгла 3/0
[Ci fib]
+32.2 +24.4 63 +44 +52 опасность
перегрева
1008.5 1002.7
06 17.05 СЗ 2 10 км 6/3 600 м
[Cu hum Ci fib]
+36.5 +23.4 47 +47 +60 опасность
перегрева
1006.4 1000.7
09 17.05 З 2 10 км 6/3 600 м
[Cu med, cong Ci fib]
+37.5 +24.1 46 +49 +54 опасность
перегрева
1003.4 997.7
12 17.05 штиль 0 8000 м мгла 4/1 600 м
[Cu hum Ci fib]
+34.5 +24.6 56 +47 +47 опасность
перегрева
1004.6 998.9 +37.6
15 17.05 Ю 5 8000 м дымка 3/0
[Ci fib]
+31.2 +25.6 72 +46 +46 опасность
перегрева
1006.5 1000.7
18 17.05 Ю 8 8000 м дымка 3/0
[Ci fib]
+29.8 +23.7 70 +41 +41 опасность
перегрева
1006.2 1000.4
21 17.05 Ю 3 8000 м дымка 3/0
[Ci fib]
+28.3 +23.5 75 +38 +38 очень
душно
1005.2 999.3
00 18.05 Ю 3 8000 м дымка 3/0
[Ci fib]
+28.5 +26.2 87 +43 +44 опасность
перегрева
1007.2 1001.3 +27.0
03 18.05 Ю 5 8000 м мгла 3/1 600 м
[Cu hum Ci fib]
+33.9 +25.2 61 +48 +55 опасность
перегрева
1007.9 1002.2
06 18.05 штиль 0 10 км 3/3 600 м
[Cu hum]
+37.0 +24.3 48 +49 +69 опасность
перегрева
1005.1 999.4
09 18.05 ЮЗ 5 10 км 3/3 600 м
[Cu hum]
+37.5 +23.2 44 +47 +50 опасность
перегрева
1002.6 997.0
12 18.05 ЮЗ 4 10 км 3/0
[Ci fib]
+34.3 +23.9 55 +46 +46 опасность
перегрева
1003.7 997.9 +38.0
15 18.05 штиль 0 10 км 3/0
[Ci fib]
+31.0 +24.6 69 +44 +44 опасность
перегрева
1006.2 1000.4
18 18.05 Ю 2 10 км 3/0
[Ci fib]
+30.0 +25.0 75 +43 +43 опасность
перегрева
1005.9 1000.1
21 18.05 штиль 0 10 км 3/0
[Ci fib]
+29.0 +25.5 81 +43 +43 опасность
перегрева
1005.3 999.5
00 19.05 ЮЗ 2 8000 м дымка 3/0
[Ci fib]
+28.5 +26.4 88 +43 +45 опасность
перегрева
1007.2 1001.4 +27.3
03 19.05 В 3 10 км 4/3 600 м
[Sc Cs]
+34.2 +23.4 53 +45 +54 опасность
перегрева
1008.8 1003.0
06 19.05 штиль 0 9000 м 5/3 600 м
[Cu med, cong Cs]
+37.5 +22.5 42 +46 +65 опасность
перегрева
1006.3 1000.6
09 19.05 Ю 3 9000 м мгла 8/4 600 м
[Cb cap Ac As Cs]
+38.6 +22.5 40 +47 +50 опасность
перегрева
1003.9 998.2
12 19.05 Ю 4 9000 м мгла 8/5 600 м
[Cu Sc Cs]
+34.3 +21.7 48 +42 +42 опасность
перегрева
1004.9 999.2 +39.1
15 19.05 штиль 0 9000 м дымка 5/3 600 м
[Sc Ci fib]
+31.1 +24.7 69 +44 +44 опасность
перегрева
1007.4 1001.6
18 19.05 ЮЗ 4 9000 м дымка 3/0
[Ci fib]
+29.1 +23.3 71 +39 +39 очень
душно
1007.8 1001.9
21 19.05 штиль 0 9000 м дымка 3/0
[Ci fib]
+29.2 +26.1 83 +44 +44 опасность
перегрева
1006.7 1000.9
00 20.05 штиль 0 10 км 8/4 600 м
[Sc Cs]
+29.0 +26.3 85 +44 +45 опасность
перегрева
1008.1 1002.3 +27.9
03 20.05 Ю 3 10 км 8/4 600 м
[Cu Sc Cs]
+34.5 +26.9 65 +52 +59 опасность
перегрева
1008.9 1003.2
06 20.05 З 4 10 км 8/4 600 м
[Cu med, cong Cs]
+38.2 +26.2 51 +54 +61 опасность
перегрева
1006.5 1000.9
09 20.05 СЗ 5 10 км {гроза} 8/5 300 м
[Cb cap Ac As Cs]
+37.6 +24.8 48 +50 +52 опасность
перегрева
1003.6 997.9
12 20.05 штиль 0 10 км {гроза, дождь} 9/5 600 м
[Cu Sc Ac As Cs]
+34.6 +25.5 59 +49 +49 опасность
перегрева
1004.9 999.2 +39.0 0.0
15 20.05 Ю 3 10 км 6/3 600 м
[Sc Ci fib]
+31.2 +23.4 63 +42 +42 опасность
перегрева
1007.6 1001.8
18 20.05 штиль 0 10 км 4/0
[Ci fib]
+29.9 +25.4 77 +44 +44 опасность
перегрева
1007.3 1001.5
21 20.05 штиль 0 10 км 4/0
[Ci fib]
+28.6 +25.8 85 +43 +43 опасность
перегрева
1007.3 1001.4
00 21.05 Ю 2 10 км 8/5 600 м
[Sc Cs]
+28.7 +26.3 87 +44 +44 опасность
перегрева
1008.2 1002.4 +27.6 0.0
03 21.05 Ю 3 10 км 8/4 600 м
[Cu Sc Cs]
+34.1 +25.6 61 +49 +56 опасность
перегрева
1008.8 1003.0
06 21.05 Ю 5 10 км 8/3 300 м
[Cb cap Cs]
+37.7 +25.1 49 +51 +58 опасность
перегрева
1006.7 1001.0
09 21.05 штиль 0 10 км гроза без осадков 9/5 300 м
[Cb cap Ac As Cs]
+39.0 +24.2 43 +50 +53 опасность
перегрева
1003.6 998.0
12 21.05 штиль 0 10 км гроза без осадков 10/5 300 м
[Cb cap Ac As]
+31.3 +24.3 66 +43 +43 опасность
перегрева
1005.5 999.7 +39.4
15 21.05 В 4 10 км 6/3 600 м
[Sc Cs]
+29.2 +24.0 74 +41 +41 опасность
перегрева
1007.8 1001.9
18 21.05 штиль 0 10 км 8/3 600 м
[Sc Cs]
+28.7 +25.0 80 +41 +41 опасность
перегрева
1009.2 1003.3
21 21.05 штиль 0 10 км гроза, ливневой дождь 9/5 300 м
[Cb cap Ac As Cs]
+24.6 +23.9 96 +34 +34 очень
душно
1009.3 1003.4 0.5
00 22.05 штиль 0 10 км в посл. час гроза 10/5 300 м
[Cb cap Ac As]
+24.7 +24.4 98 +34 +35 очень
душно
1008.7 1002.7 +23.7 2
03 22.05 штиль 0 10 км 10/5 600 м
[Cu Sc Ac As]
+27.6 +25.5 88 +40 +44 очень
душно
1010.5 1004.6
06 22.05 штиль 0 10 км 10/5 600 м
[Cu Sc Ac As Cs]
+31.5 +25.3 70 +46 +53 опасность
перегрева
1008.7 1002.9
09 22.05 Ю 2 10 км 10/5 600 м
[Cu Sc Ac As Cs]
+33.9 +25.3 61 +48 +50 опасность
перегрева
1005.5 999.8
12 22.05 штиль 0 10 км гроза без осадков 10/5 300 м
[Cb cap Ac As Cs]
+31.6 +26.1 73 +48 +48 опасность
перегрева
1007.0 1001.2 +34.4
15 22.05 штиль 0 10 км {гроза} 9/5 600 м
[Sc Ac As Cs]
+27.4 +24.8 86 +39 +39 очень
душно
1009.5 1003.6
18 22.05 штиль 0 10 км {гроза} 8/5 600 м
[Sc Ac As Cs]
+26.5 +25.1 92 +38 +38 очень
душно
1009.5 1003.6
21 22.05 штиль 0 10 км 8/4 600 м
[Sc Ac trans Cs]
+25.7 +25.5 99 +37 +37 очень
душно
1008.2 1002.2
00 23.05 штиль 0 10 км 9/5 600 м
[Sc Ac trans Ci fib]
+25.6 +24.9 96 +36 +37 очень
душно
1009.4 1003.5 +24.5
03 23.05 Ю 4 10 км 8/4 600 м
[Cu Sc Cs]
+32.5 +24.7 64 +46 +51 опасность
перегрева
1009.7 1003.9
06 23.05 ЮВ 5 10 км 8/4 300 м
[Cb cap Cs]
+36.7 +23.4 47 +47 +53 опасность
перегрева
1007.2 1001.5
09 23.05 Ю 4 10 км в посл. час гроза 10/5 300 м
[Cb cap Ac As]
+32.6 +23.0 57 +43 +44 опасность
перегрева
1005.2 999.5
12 23.05 СЗ 5 10 км слаб. ливневой дождь {гроза} 10/5 300 м
[Cb cap Ac As]
+28.3 +22.9 73 +38 +38 очень
душно
1008.6 1002.8 +37.4 0.2
15 23.05 штиль 0 10 км {гроза} 9/5 600 м
[Sc Ac As Cs]
+26.0 +25.3 96 +38 +38 очень
душно
1010.7 1004.7 7
18 23.05 штиль 0 10 км {гроза} 9/5 600 м
[Sc Ac As Cs]
+26.1 +25.4 96 +38 +38 очень
душно
1009.4 1003.5 7

 

Местоположение метеостанции Буа Чум (Таиланд): широта 15.27 долгота 101.18 высота над уровнем моря 50 м.

В архиве по умолчанию представлена погода в Буа Чум за последнюю неделю. Архивные данные за месяц целиком и за предыдущие месяцы, начиная с января 2011 года, Вы можете получить, выбрав интересующий диапазон дат из раскрывающегося списка и нажав кнопку "Ввод!".


*Определитесь, кто Вы:
робот инопланетянин человек

Внимание! Время в таблицах - всемирное. Для получения местного времени необходимо прибавить поправку, которая равна 7 ч.

Смотрите также архив погоды в соседних городах и на ближайших метеорологических станциях:

Погода в Лаем-Чабанге (Таиланд) (39 км)
Погода в Вичан Бури (Таиланд) (41 км)
Погода в Пакчонг Агромете (Таиланд) (73 км)
Погода в Такфа Агромете (Таиланд) (73 км)
Погода в Лопбури (Таиланд) (81 км)
Погода в Сарабури (Таиланд) (88 км)
Погода в Аюттхая (Таиланд) (97 км)
Погода в Накхон Ратчасима (Таиланд) (102 км)
Погода в Чайнат Агромете (Таиланд) (108 км)
Погода в Чайяпхуме (Таиланд) (108 км)

Пояснения к столбцам:

Ветер - указаны скорость ветра в м/с - средняя за 10 мин, порывы в срок и между сроками (в фигурных скобках) и направление, откуда дует ветер: С - северный, СВ - северо-восточный, В - восточный, ЮВ - юго-восточный, Ю - южный, ЮЗ - юго-западный, З - западный, СЗ - северо-западный.
Видимость - горизонтальная дальность видимости в метрах или километрах. При видимости от 1 до 10 км при отсутствии осадков обычно наблюдается дымка, при ухудшении видимости до 1 км и менее - туман. В сухую погоду видимость может ухудшаться дымом, пылью или мглою.
Явления - указаны атмосферные явления, наблюдавшиеся в срок или в последний час перед сроком; фигурными скобками обозначены явления, наблюдавшиеся между сроками (за 1-3 часа до срока); квадратными скобками обозначены град или гололедные отложения с указанием их диаметра в мм.
Облачность - указаны через наклонную черту общая и нижняя облачность в баллах и высота нижней границы облаков в метрах; квадратными скобками обозначены формы облаков: Ci - перистые, Cs - перисто-слоистые, Cc - перисто-кучевые, Ac - высококучевые, As - высокослоистые, Sc - слоисто-кучевые, Ns - слоисто-дождевые, Cu - кучевые, Cb - кучево-дождевые. Подробнее классификацию облаков см. в Атласе облаков (PDF).
T - Температура воздуха - температура, измеренная на высоте 2 м над землей.
Td - Температура точки росы - температура, при понижении до которой содержащийся в воздухе водяной пар достигнет насыщения.
f - Относительная влажность воздуха - влажноcть воздуха, измеренная на высоте 2 м над землей.
Te - Эффективная температура - температура, которую ощущает одетый по сезону человек в тени. Характеристика душности погоды. При расчете учитывается влияние влажности воздуха и скорости ветра на теплоощущения человека.
Tes - Эффективная температура на солнце - температура, которую ощущает человек, с поправкой на солнечный нагрев. Характеристика знойности погоды. Зависит от высоты солнца над горизонтом, облачности и скорости ветра. Ночью, в пасмурную погоду, а также при ветре 12 м/с и более поправка равна нулю.
P - Атмосферное давление - приведенное к уровню моря атмосферное давление.
Po - Атмосферное давление - измеренное на уровне метеостанции атмосферное давление.
Tmin - Минимальная температура - минимум температуры воздуха на высоте 2 м над землей.
Tmax - Максимальная температура - максимум температуры воздуха на высоте 2 м над землей.
R - Количество осадков - Количество выпавших осадков за период времени, мм. При наведении курсора мыши на число - период времени, за который выпало указанное количество осадков.
R24 - Количество осадков - Количество выпавших осадков за 24 часа, мм.
S - Снежный покров - Высота снежного покрова, см. При наведении курсора мыши на число - состояние снежного покрова и степень покрытия местности в баллах.